Zurück zum Katalog

MDS 1

AktivWissenschaftHEO
NORAD 27367·PAYLOAD·🇯🇵 Japan

Gestartet Feb 4, 2002 von Tanegashima Space Center

Loading…

Nächste Überflüge (nächste 24 Stunden)

TLE

AktuellSource: Space-Track

Epoche: Sep 14, 2026, 07:53 UTC

1 27367U 02003A   26257.32887444  .00008158  00000-0  52931-3 0  9997
2 27367  28.5103 102.1454 4128219 262.0264  50.5096  7.20020199399277

Verfolge MDS 1 in Echtzeit mit AllMySat

Download on the App Store